Date String (YYYY-MM-DD hh:mm:ss) UTC,Instrument flags,Ambient pressure (hPa),Sample flow (lpm),Bypass flow (lpm),Sample temperature (°C),Ambient temperature (°C),ASC tube jacket temperature (°C),LED temperature (°C),Box temperature (°C),Sample RH (%),Span deviation,Mass concentration (μg/m³),Mass concentration (μg/m³),Mass concentration (μg/m³)
DateTimeUTC,F1_M11,P_M11,Q1_M11,Q2_M11,T1_M11,T2_M11,T3_M11,T4_M11,T5_M11,U1_M11,ZSPAN_M11,X0_M11,X2_M11,X1_M11
2023-04-25 03:00:00,,0823.2,4.98,0.00,28.1,26.5,00.0,36.5,29.6,12.8,0000.0,0009.19,0004.67,0003.86
2023-04-25 03:01:00,,0823.1,5.01,0.00,28.0,26.4,00.0,36.5,29.6,12.7,0000.0,0009.79,0004.67,0003.87
2023-04-25 03:02:00,,0823.1,5.00,0.00,28.0,26.4,00.0,36.5,29.7,12.7,0000.0,0009.75,0004.62,0003.86
2023-04-25 03:03:00,,0823.1,5.01,0.00,28.1,26.4,00.0,36.5,29.7,12.7,0000.0,0009.76,0004.63,0003.86
2023-04-25 03:04:00,,0823.1,5.00,0.00,28.1,26.4,00.0,36.5,29.6,12.7,0000.0,0009.83,0004.61,0003.86
2023-04-25 03:05:00,,0823.1,5.00,0.00,28.0,26.4,00.0,36.5,29.6,12.7,0000.0,0009.81,0004.60,0003.86
2023-04-25 03:06:00,,0823.2,5.00,0.00,28.1,26.4,00.0,36.5,29.7,12.8,0000.0,0009.73,0004.60,0003.87
2023-04-25 03:07:00,,0823.0,5.00,0.00,28.1,26.4,00.0,36.5,29.7,12.8,0000.0,0009.34,0004.60,0003.89
2023-04-25 03:08:00,,0823.1,5.00,0.00,28.1,26.4,00.0,36.5,29.7,12.8,0000.0,0009.12,0004.57,0003.90
2023-04-25 03:09:00,,0823.1,5.00,0.00,28.1,26.4,00.0,36.5,29.6,12.8,0000.0,0009.14,0004.59,0003.90
2023-04-25 03:10:00,,0823.1,5.00,0.00,28.1,26.4,00.0,36.4,29.6,12.9,0000.0,0008.71,0004.56,0003.90
2023-04-25 03:11:00,,0823.1,5.00,0.00,28.0,26.4,00.0,36.5,29.6,12.9,0000.0,0008.62,0004.54,0003.89
2023-04-25 03:12:00,,0823.1,5.00,0.00,28.1,26.4,00.0,36.4,29.6,12.9,0000.0,0008.20,0004.54,0003.90
2023-04-25 03:13:00,,0823.1,5.00,0.00,28.1,26.5,00.0,36.4,29.7,12.9,0000.0,0007.99,0004.54,0003.90
2023-04-25 03:14:00,,0823.1,5.00,0.00,28.1,26.5,00.0,36.4,29.7,13.1,0000.0,0008.04,0004.57,0003.89
2023-04-25 03:15:00,,0823.1,4.99,0.00,28.1,26.5,00.0,36.4,29.7,13.1,0000.0,0008.76,0004.54,0003.89
2023-04-25 03:16:00,,0823.1,5.00,0.00,28.1,26.4,00.0,36.4,29.7,13.1,0000.0,0008.82,0004.55,0003.89
2023-04-25 03:17:00,,0823.1,5.00,0.00,28.1,26.4,00.0,36.4,29.7,13.0,0000.0,0008.87,0004.57,0003.90
2023-04-25 03:18:00,,0823.1,5.00,0.00,28.1,26.4,00.0,36.4,29.6,13.0,0000.0,0008.93,0004.53,0003.89
2023-04-25 03:19:00,,0823.1,5.00,0.00,28.1,26.4,00.0,36.4,29.7,13.1,0000.0,0008.92,0004.53,0003.89
2023-04-25 03:20:00,,0823.1,5.00,0.00,28.1,26.4,00.0,36.4,29.7,13.1,0000.0,0008.79,0004.49,0003.89
2023-04-25 03:21:00,,0823.1,5.00,0.00,28.1,26.4,00.0,36.4,29.7,13.2,0000.0,0008.82,0004.49,0003.89
2023-04-25 03:22:00,,0823.0,5.00,0.00,28.0,26.4,00.0,36.4,29.7,13.2,0000.0,0008.88,0004.51,0003.88
2023-04-25 03:23:00,,0823.0,5.00,0.00,28.0,26.4,00.0,36.4,29.7,13.2,0000.0,0008.82,0004.49,0003.89
2023-04-25 03:24:00,,0823.0,5.00,0.00,28.0,26.4,00.0,36.4,29.7,13.2,0000.0,0009.02,0004.55,0003.90
2023-04-25 03:25:00,,0823.0,4.99,0.00,28.0,26.4,00.0,36.4,29.6,13.2,0000.0,0009.04,0004.52,0003.91
2023-04-25 03:26:00,,0823.0,4.99,0.00,28.0,26.4,00.0,36.4,29.6,13.2,0000.0,0008.41,0004.55,0003.91
2023-04-25 03:27:00,,0823.1,4.99,0.00,28.0,26.4,00.0,36.4,29.6,13.2,0000.0,0008.14,0004.56,0003.91
2023-04-25 03:28:00,,0823.0,5.01,0.00,28.0,26.4,00.0,36.4,29.6,13.2,0000.0,0008.10,0004.55,0003.90
2023-04-25 03:29:00,,0823.0,5.01,0.00,28.0,26.4,00.0,36.4,29.6,13.1,0000.0,0008.30,0004.56,0003.88
2023-04-25 03:30:00,,0823.0,5.00,0.00,28.0,26.4,00.0,36.4,29.6,13.1,0000.0,0008.38,0004.57,0003.87
2023-04-25 03:31:00,,0823.0,4.99,0.00,28.0,26.4,00.0,36.4,29.6,13.1,0000.0,0008.39,0004.58,0003.88
2023-04-25 03:32:00,,0823.0,5.00,0.00,28.0,26.4,00.0,36.4,29.6,13.1,0000.0,0008.44,0004.61,0003.87
2023-04-25 03:33:00,,0823.0,5.00,0.00,28.0,26.4,00.0,36.4,29.7,13.1,0000.0,0008.49,0004.63,0003.86
2023-04-25 03:34:00,,0823.1,5.00,0.00,28.0,26.4,00.0,36.4,29.6,13.1,0000.0,0008.55,0004.65,0003.85
2023-04-25 03:35:00,,0823.0,5.00,0.00,28.0,26.4,00.0,36.4,29.6,13.2,0000.0,0008.59,0004.62,0003.84
2023-04-25 03:36:00,,0823.0,5.00,0.00,28.0,26.4,00.0,36.4,29.6,13.1,0000.0,0008.53,0004.61,0003.83
2023-04-25 03:37:00,,0823.0,5.00,0.00,28.0,26.4,00.0,36.4,29.6,13.1,0000.0,0008.45,0004.59,0003.83
2023-04-25 03:38:00,,0823.1,5.00,0.00,28.0,26.4,00.0,36.4,29.6,13.1,0000.0,0008.46,0004.57,0003.83
2023-04-25 03:39:00,,0823.1,5.00,0.00,28.0,26.4,00.0,36.4,29.6,13.0,0000.0,0008.39,0004.54,0003.83
2023-04-25 03:40:00,,0823.0,5.00,0.00,28.0,26.4,00.0,36.4,29.6,13.0,0000.0,0008.12,0004.56,0003.84
2023-04-25 03:41:00,,0823.1,5.00,0.00,28.0,26.4,00.0,36.4,29.6,13.0,0000.0,0008.08,0004.55,0003.85
2023-04-25 03:42:00,,0823.1,5.00,0.00,28.0,26.4,00.0,36.4,29.6,13.0,0000.0,0008.17,0004.58,0003.84
2023-04-25 03:43:00,,0823.1,5.00,0.00,28.0,26.4,00.0,36.4,29.6,13.0,0000.0,0008.14,0004.56,0003.84
2023-04-25 03:44:00,,0823.3,5.00,0.00,28.0,26.4,00.0,36.4,29.6,13.0,0000.0,0008.51,0004.53,0003.85
2023-04-25 03:45:00,,0823.3,5.00,0.00,28.0,26.4,00.0,36.4,29.5,13.0,0000.0,0009.14,0004.56,0003.86
2023-04-25 03:46:00,,0823.4,4.99,0.00,27.9,26.2,00.0,36.4,29.5,13.2,0000.0,0008.93,0004.52,0003.86
2023-04-25 03:47:00,,0823.3,4.99,0.00,27.9,26.1,00.0,36.4,29.4,13.4,0000.0,0008.97,0004.51,0003.86
2023-04-25 03:48:00,,0823.3,5.00,0.00,27.9,26.0,00.0,36.3,29.4,13.4,0000.0,0009.19,0004.51,0003.86
2023-04-25 03:49:00,,0823.3,5.00,0.00,27.8,25.9,00.0,36.3,29.3,13.4,0000.0,0009.12,0004.51,0003.86
2023-04-25 03:50:00,,0823.2,5.01,0.00,27.8,25.9,00.0,36.3,29.3,13.4,0000.0,0009.07,0004.50,0003.86
2023-04-25 03:51:00,,0823.2,4.99,0.00,27.8,25.8,00.0,36.3,29.2,13.1,0000.0,0009.00,0004.48,0003.85
2023-04-25 03:52:00,,0823.2,4.99,0.00,27.7,25.8,00.0,36.3,29.2,13.2,0000.0,0008.99,0004.49,0003.86
2023-04-25 03:53:00,,0823.2,5.01,0.00,27.7,25.7,00.0,36.3,29.2,13.2,0000.0,0008.89,0004.47,0003.87
2023-04-25 03:54:00,,0823.1,5.01,0.00,27.7,25.7,00.0,36.2,29.1,13.2,0000.0,0008.91,0004.49,0003.89
2023-04-25 03:55:00,,0823.2,4.99,0.00,27.6,25.7,00.0,36.2,29.1,13.1,0000.0,0008.69,0004.52,0003.89
2023-04-25 03:56:00,,0823.1,4.99,0.00,27.6,25.7,00.0,36.2,29.1,12.9,0000.0,0008.18,0004.49,0003.89
2023-04-25 03:57:00,,0823.1,5.00,0.00,27.6,25.6,00.0,36.2,29.1,13.0,0000.0,0008.33,0004.51,0003.89
2023-04-25 03:58:00,,0823.1,5.00,0.00,27.5,25.6,00.0,36.2,29.0,13.1,0000.0,0008.25,0004.53,0003.89
2023-04-25 03:59:00,,0823.1,5.00,0.00,27.5,25.6,00.0,36.1,29.1,13.0,0000.0,0008.09,0004.55,0003.88
